Lacey, Washington, United States (98503)
Lat: 47.03N, Lon: 122.82W
Wx Zone: WAZ504
Local Info
Past Weather Observations for Today

NOTE: This archive is for the closest National Weather Service station to Lacey. Information may differ from the station used for current weather conditions.

Time Weather Temperature Dewpoint Humidity Pressure Winds Precip Visibility
22:54
Overcast
Light Rain
45°F / 7°C 41°F / 5°C 87% 29.89 in
(1012 mb)
SSE 10.4 mph
(SSE 17 kph)
0.00 in
(0.00 mm)
9SM
22:52
Overcast
Light Rain
45°F / 7°C 41°F / 5°C 87% 29.89 in
(1012 mb)
SSE 9.2 mph
(SSE 15 kph)
0.00 in
(0.00 mm)
8SM
22:15
Overcast
Light Rain
45°F / 7°C 43°F / 6°C 93% 29.89 in
(1012 mb)
SSE 5.8 mph
(SSE 9 kph)
0.00 in
(0.00 mm)
9SM
21:54
Overcast
Light Rain
45°F / 7°C 43°F / 6°C 93% 29.89 in
(1012 mb)
SW 5.8 mph
(SW 9 kph)
0.01 in
(0.25 mm)
7SM
20:54
Overcast
Light Rain
43°F / 6°C 41°F / 5°C 93% 29.89 in
(1012 mb)
SSE 8.1 mph
(SSE 13 kph)
0.10 in
(2.54 mm)
7SM
20:09
Overcast
Light Rain
45°F / 7°C 43°F / 6°C 93% 29.89 in
(1012 mb)
SSE 11.5 mph
(SSE 19 kph)
0.04 in
(1.02 mm)
4SM
19:54
Overcast
Light Rain
45°F / 7°C 43°F / 6°C 93% 29.89 in
(1012 mb)
S 8.1 mph
(S 13 kph)
0.02 in
(0.51 mm)
4SM
18:54
Overcast
Light Rain
46°F / 8°C 43°F / 6°C 87% 29.89 in
(1012 mb)
SW 6.9 mph
(SW 11 kph)
0.01 in
(0.25 mm)
5SM
17:54
Overcast
Light Rain
46°F / 8°C 43°F / 6°C 87% 29.92 in
(1013 mb)
SW 6.9 mph
(SW 11 kph)
0.04 in
(1.02 mm)
5SM
16:54
Overcast
Light Rain
48°F / 9°C 43°F / 6°C 82% 29.89 in
(1012 mb)
S 8.1 mph
(S 13 kph)
0.01 in
(0.25 mm)
10SM
15:54
Overcast
52°F / 11°C 41°F / 5°C 67% 29.92 in
(1013 mb)
Variable 4.6 mph
(Variable 7 kph)
- 10SM
14:54
Overcast
48°F / 9°C 39°F / 4°C 71% 29.92 in
(1013 mb)
SSW 8.1 mph
(SSW 13 kph)
0.00 in
(0.00 mm)
10SM
13:54
Overcast
48°F / 9°C 39°F / 4°C 71% 29.92 in
(1013 mb)
SW 6.9 mph
(SW 11 kph)
0.01 in
(0.25 mm)
10SM
12:54
Overcast
Rain
48°F / 9°C 39°F / 4°C 71% 29.92 in
(1013 mb)
SW 4.6 mph
(SW 7 kph)
0.02 in
(0.51 mm)
6SM
11:54
Mostly Cloudy
52°F / 11°C 37°F / 3°C 58% 29.92 in
(1013 mb)
W 12.7 mph
(W 20 kph)
0.01 in
(0.25 mm)
10SM
10:54
Overcast
Light Rain
45°F / 7°C 39°F / 4°C 81% 29.92 in
(1013 mb)
SSE 8.1 mph
(SSE 13 kph)
0.01 in
(0.25 mm)
10SM
09:54
Overcast
52°F / 11°C 37°F / 3°C 58% 29.92 in
(1013 mb)
SW 12.7 mph
(SW 20 kph)
- 10SM
08:54
Mostly Cloudy
50°F / 10°C 37°F / 3°C 62% 29.92 in
(1013 mb)
SW 9.2 mph
(SW 15 kph)
- 10SM
07:54
Partly Cloudy
48°F / 9°C 39°F / 4°C 71% 29.92 in
(1013 mb)
SW 9.2 mph
(SW 15 kph)
- 10SM
06:54
Partly Cloudy
45°F / 7°C 39°F / 4°C 81% 29.92 in
(1013 mb)
S 9.2 mph
(S 15 kph)
- 10SM
05:54
Clear
39°F / 4°C 37°F / 3°C 93% 29.92 in
(1013 mb)
SW 6.9 mph
(SW 11 kph)
- 7SM
04:54
Clear
43°F / 6°C 37°F / 3°C 81% 29.89 in
(1012 mb)
SW 10.4 mph
(SW 17 kph)
- 9SM
03:54
Partly Cloudy
45°F / 7°C 37°F / 3°C 76% 29.89 in
(1012 mb)
SSW 10.4 mph
(SSW 17 kph)
- 10SM
02:54
Overcast
45°F / 7°C 39°F / 4°C 81% 29.83 in
(1010 mb)
SSW 8.1 mph
(SSW 13 kph)
0.00 in
(0.00 mm)
9SM
01:54
Overcast
45°F / 7°C 41°F / 5°C 87% 29.86 in
(1011 mb)
SW 5.8 mph
(SW 9 kph)
0.00 in
(0.00 mm)
7SM
00:54
Overcast
Light Rain
45°F / 7°C 43°F / 6°C 93% 29.86 in
(1011 mb)
SSE 6.9 mph
(SSE 11 kph)
0.00 in
(0.00 mm)
8SM
Time Weather Temperature Dewpoint Humidity Pressure Winds Precip Visibility


Weather for websites

WeatherForYou.com, LLC is not responsible for any damages or problems caused by this service. Current weather conditions are obtained from the closest station including government and personal stations which may have varying degrees of accuracy. Weather forecasts are derived from the NOAA NDFD. Like all things, this site belongs to Jesus Christ... He just trusts me to maintain it. If you have any questions or comments email webmaster@weatherforyou.com

Copyright © 2014, WeatherForYou.com LLC. All rights reserved.